SCP
0 0 0 0 0 0 0 0 0 0 0 0 -0 -0 0 0 0 0 0 0 0 0 0 0 0 0 0 0 0 0 0 0 0 0 0 0 0 0
0 0 0 0 0 0 0 0 0 0 0 0 0 0 -0 -0 0 0 0 0 0 0 0 0 0 0 0 0 0 -0 0 0 0 0 0 0 0 0
0 0 0 0 0 0 0 0 0 0 0 0 0 0 -0 0 0 0 0 0 0 0 0 0 0 0 0 0 0 0 0 0 0 0 0 0 0 0
0 0 0 0 0 0 0 0 0 0 0 0 0 0 0 0 0 0 0 0 0 0 0 0 0 0 0 0 0 0 0 0 -0 0 0 0 0 0
0 0 0 0 0 0 0 0 0 0 0 0 0 0 0 0 0 0 0 0 0 0 0 0 0 0 0 0 0 0 0 0 0 0 0 0 0 0
0 0 0 0 0 0 0 0 0 0 0 0 0 0 0 0 0 0 0 0 0 0 0 0 0 0 0 0 0 0 0 0 0 0 0 0 0 0
0 0 0 0 0 0 0 0 0 0 0 0 0 0 0 0 0 0 0 0 0 0 0 0 0 0 0 0 0 0 0 0 0 0 -0 0 -0 0
0 0 0 0 0 0 0 0 0 0 0 0 0 0 0 0 0 0 0 0 0 0 0 0 0 0 0 0 0 0 0 0 0 0 0 0 0 0
0 0 0 0 0 0 0 0 0 0 0 0 0 0 0 0 0 0 0 0 0 0 0 0 0 0 0 0 0 0 0 0 0 0 0 0 0 0
0 0 0 0 0 0 0 0 0 0 0 0 0 0 0 0 0 -0 0 0 0 0 0 0 0 0 0 0 0 0 0 0 0 0 0 0 0 0
0 0 0 0 0 0 0 0 0 0 0 0 0 -0 -0 -0 0 -0 0 0 0 0 0 0 0 0 0 0 0 0 0 0 0 0 0 0 0 0
0 0 0 0 0 0 0 0 0 0 0 0 0 0 -0 -0 0 0 -0 0 0 0 0 0 0 0 0 0 0 0 0 0 0 0 0 0 0 0
0 0 0 0 0 0 0 0 0 0 0 0 0 0 0 0 0 0 0 0 0 0 0 0 0 0 0 0 0 0 0 0 0 0 0 0 0 0
0 0 0 0 0 0 0 0 0 0 0 0 0 0 0 0 0 0 0 0 -0 -0 0 0 0 0 0 0 0 0 0 0 0 0 0 0 0 0
0 0 0 0 0 0 0 0 0 0 0 0 0 0 0 0 0 0 0 0 -0 -0 -0 0 0 0 0 0 0 0 0 0 0 0 0 0 0 0
0 0 0 0 0 0 0 0 0 0 0 0 0 0 0 0 0 0 0 0 0 -0 -0 0 0 0 0 0 0 0 0 0 0 0 0 0 0 0
0 0 0 0 0 0 0 0 0 0 0 0 0 0 0 0 0 0 0 0 0 0 0 0 -0 -0 0 0 0 0 0 0 0 0 0 0 0 0
0 0 0 0 0 0 0 0 0 0 0 0 0 0 0 0 0 0 0 0 0 0 0 0 0 0 0 0 0 0 0 0 0 0 0 0 0 0
0 0 0 0 0 0 0 0 0 0 0 0 0 0 0 0 0 0 0 0 0 0 0 0 0 0 0 0 0 0 0 0 0 0 0 0 0 0
0 0 0 0 0 0 0 0 0 0 0 0 0 0 0 0 0 0 0 0 0 0 0 0 0 0 0 0 0 0 0 0 0 0 0 0 0 0
0 0 0 0 0 0 0 0 0 0 0 0 0 0 0 0 0 0 0 0 0 0 0 0 0 0 0 0 0 0 0 0 0 0 0 0 0 0
0 0 0 0 0 0 0 0 0 0 0 0 0 0 0 0 0 0 0 0 0 0 0 0 0 0 0 0 0 0 0 0 0 0 0 0 0 0
0 0 0 0 0 0 0 0 0 0 0 0 0 0 0 0 0 0 0 0 0 0 0 0 0 0 0 0 0 0 0 0 0 0 0 0 0 0
Wind_Speed_500mb
32 35 41 45 49 53 55 54 64 73 70 55 55 64 65 63 63 62 58 45 44 46 45 48 67 61 58 81 79 82 91 76 122 110 139 127 114 110
34 39 42 45 49 51 51 54 57 68 81 57 66 68 70 58 48 54 57 62 44 46 48 47 58 52 55 53 79 86 74 71 113 124 104 135 117 118
34 39 41 42 47 50 52 55 53 50 68 61 64 66 67 70 72 61 49 48 47 44 39 42 48 52 52 47 56 56 65 81 79 101 143 135 139 111
37 38 43 42 45 44 48 51 51 52 61 68 66 62 65 58 65 57 55 48 35 45 37 43 50 47 53 55 48 67 59 74 80 72 55 133 117 95
34 36 38 39 42 44 41 43 43 45 47 55 65 63 62 55 47 35 36 31 30 40 28 21 32 42 44 45 53 44 43 53 30 33 61 92 93 98
28 30 34 36 40 41 41 40 39 41 42 48 56 58 54 48 41 47 32 28 27 32 33 43 44 35 40 48 45 51 49 42 40 53 36 53 82 96
28 30 32 35 38 39 43 44 40 41 43 42 46 54 50 49 47 41 39 27 22 26 23 27 35 14 23 33 42 49 47 59 58 49 56 61 65 66
31 30 32 35 37 37 35 34 36 39 43 45 48 49 56 52 44 43 43 34 19 9 8 11 4 17 16 10 8 10 19 30 33 43 55 62 66 70
38 38 36 34 33 31 31 32 27 31 37 43 50 50 53 45 37 38 36 37 25 11 16 11 5 5 10 15 20 16 9 4 6 10 31 25 34 38
41 41 41 38 35 29 29 24 18 20 31 35 45 47 44 41 34 27 30 32 24 12 14 15 18 24 21 32 33 21 19 20 13 9 16 20 46 61
39 41 44 42 40 37 28 20 16 20 26 29 31 36 35 25 25 27 29 26 22 20 21 28 34 42 41 45 54 49 57 59 64 66 64 61 63 60
35 37 40 43 43 39 34 28 21 20 21 23 27 28 24 16 18 24 27 25 27 18 25 32 48 41 23 39 42 46 50 47 46 45 40 37 37 42
32 33 36 40 42 41 35 30 28 27 28 25 22 19 16 15 10 14 19 20 25 24 28 33 43 23 21 39 39 41 41 43 40 38 32 31 29 20
28 29 33 36 38 39 36 33 33 30 26 25 23 21 20 20 18 12 3 12 22 18 25 38 41 24 30 47 39 34 34 34 26 28 30 31 34 35
25 27 29 31 34 34 34 35 33 30 28 22 23 24 25 25 23 18 14 10 8 10 23 27 27 21 33 50 51 45 40 31 25 22 22 23 23 25
22 23 23 26 28 29 28 28 29 30 30 29 26 25 25 24 21 21 18 17 12 21 21 22 23 17 20 28 41 45 35 22 28 24 23 26 27 25
23 22 21 22 22 22 21 22 23 23 21 25 26 28 28 27 21 15 11 11 13 20 27 31 28 25 28 26 36 34 33 23 35 31 28 26 26 22
26 23 21 21 20 20 19 17 17 16 15 15 17 18 18 20 22 22 20 15 13 19 23 25 23 23 25 28 27 31 29 21 35 27 22 17 15 14
29 28 27 24 22 20 17 14 11 10 10 9 9 9 11 14 17 19 23 20 21 21 19 20 22 16 19 24 28 28 22 19 27 26 21 17 16 16
29 29 28 27 25 23 20 17 14 12 10 10 8 7 7 8 8 10 11 12 9 10 13 16 16 15 15 13 19 24 22 17 16 20 21 20 18 16
26 24 23 24 25 26 24 22 20 17 16 15 13 11 10 9 7 6 5 5 5 6 7 8 8 7 8 9 12 21 20 22 23 22 21 22 21 22
23 21 20 20 20 21 23 24 23 22 22 22 21 20 18 16 15 15 14 15 16 16 16 16 14 13 12 12 12 17 23 25 26 26 25 26 20 13
27 25 23 21 20 18 18 19 21 23 24 25 25 25 25 25 24 23 23 22 22 21 21 22 23 21 20 19 19 20 23 26 26 26 28 26 25 27
Wind_Direction_500mb
312 300 294 295 292 289 284 281 283 291 292 297 298 299 302 293 287 277 274 281 280 278 281 283 271 277 273 262 262 273 267 255 231 242 234 227 226 228
308 305 304 305 302 299 292 284 281 280 282 287 294 302 299 297 303 303 281 270 277 286 273 278 273 265 261 263 254 265 262 259 233 238 239 236 235 230
309 305 303 301 298 297 295 292 287 284 282 289 295 294 290 296 298 284 295 289 282 296 268 277 271 262 256 255 262 272 271 260 265 244 229 231 233 229
307 303 301 300 300 302 297 292 288 286 284 289 297 302 302 301 300 294 279 294 291 283 274 279 276 266 255 248 257 265 274 262 270 254 252 230 225 235
311 305 306 304 306 311 303 297 290 288 285 295 296 303 306 315 316 313 300 288 288 293 294 310 301 265 260 259 252 242 256 247 283 312 262 242 253 238
329 313 313 314 311 314 306 302 294 290 291 293 293 303 308 327 323 311 309 290 280 282 280 289 302 281 260 248 251 257 253 258 270 284 285 258 257 241
355 345 342 334 325 318 301 295 296 293 290 296 296 300 306 317 323 326 323 322 294 275 264 289 291 290 280 268 253 250 246 256 251 248 244 250 252 247
352 347 336 328 324 323 319 301 281 287 289 292 298 300 303 305 315 322 322 327 311 247 198 176 34 17 4 349 261 245 248 250 251 253 246 248 253 254
358 348 342 341 334 332 328 314 289 276 276 281 283 288 293 298 302 313 321 321 307 266 162 131 106 360 42 44 16 347 324 352 344 270 241 232 217 218
7 6 360 358 355 343 343 336 327 296 286 290 293 300 300 301 284 288 301 304 303 240 209 129 127 114 114 97 73 48 39 48 41 205 209 196 178 159
9 9 10 12 10 6 357 354 342 328 312 302 299 302 301 292 279 272 275 286 280 243 215 162 136 120 116 111 111 103 101 109 114 110 109 111 115 119
10 9 12 15 19 13 11 10 12 7 352 323 311 310 307 292 263 259 261 255 258 221 198 165 148 131 99 108 117 119 114 112 113 111 107 107 114 120
5 8 13 16 17 19 19 20 27 31 19 9 5 357 349 315 269 237 236 236 238 218 199 191 176 160 134 128 122 121 125 123 122 113 110 109 109 111
357 3 12 15 15 17 22 31 34 36 26 18 16 28 42 47 37 36 130 197 204 223 198 193 188 183 167 149 134 136 130 122 121 123 130 133 135 129
345 354 5 11 13 14 17 23 29 38 43 31 37 41 48 50 55 64 73 102 162 181 176 186 195 173 176 174 160 154 146 139 143 144 133 129 131 129
332 343 353 0 7 10 16 22 27 33 38 48 53 54 58 57 59 60 71 85 109 125 141 149 158 147 168 176 177 165 162 149 164 159 153 146 145 148
317 326 340 345 348 355 7 20 29 34 39 49 57 66 70 67 62 70 73 74 105 127 132 136 132 126 124 138 164 172 169 167 171 171 165 163 164 164
303 309 312 316 324 335 347 359 13 21 30 54 66 65 56 54 59 64 76 93 109 124 137 139 133 127 128 123 153 166 168 175 175 172 173 173 173 187
293 296 299 302 306 313 322 332 338 346 1 15 36 46 44 60 62 71 79 80 104 119 129 134 136 144 149 133 147 155 158 151 171 179 179 193 203 211
286 290 292 292 293 294 296 299 306 311 311 313 324 341 2 9 34 60 78 87 72 95 119 132 143 152 149 145 163 167 171 165 173 182 199 208 218 230
282 289 293 293 289 288 288 286 283 282 283 285 283 276 270 263 254 250 232 213 194 193 195 203 204 199 184 181 177 181 188 197 195 197 216 225 233 246
274 280 285 290 291 286 282 280 278 276 275 274 272 269 268 264 259 253 244 240 234 230 240 242 241 243 240 223 211 201 201 205 209 217 224 231 237 244
262 268 277 284 288 292 293 288 281 276 273 271 269 270 269 267 264 262 262 256 250 248 247 246 246 241 241 235 226 217 215 216 217 222 233 238 247 253
Wind_Speed_850mb
32 35 41 45 49 53 55 54 64 73 70 55 55 64 65 63 63 62 58 45 44 46 45 48 67 61 58 81 79 82 91 76 122 110 139 127 114 110
34 39 42 45 49 51 51 54 57 68 81 57 66 68 70 58 48 54 57 62 44 46 48 47 58 52 55 53 79 86 74 71 113 124 104 135 117 118
34 39 41 42 47 50 52 55 53 50 68 61 64 66 67 70 72 61 49 48 47 44 39 42 48 52 52 47 56 56 65 81 79 101 143 135 139 111
37 38 43 42 45 44 48 51 51 52 61 68 66 62 65 58 65 57 55 48 35 45 37 43 50 47 53 55 48 67 59 74 80 72 55 133 117 95
34 36 38 39 42 44 41 43 43 45 47 55 65 63 62 55 47 35 36 31 30 40 28 21 32 42 44 45 53 44 43 53 30 33 61 92 93 98
28 30 34 36 40 41 41 40 39 41 42 48 56 58 54 48 41 47 32 28 27 32 33 43 44 35 40 48 45 51 49 42 40 53 36 53 82 96
28 30 32 35 38 39 43 44 40 41 43 42 46 54 50 49 47 41 39 27 22 26 23 27 35 14 23 33 42 49 47 59 58 49 56 61 65 66
31 30 32 35 37 37 35 34 36 39 43 45 48 49 56 52 44 43 43 34 19 9 8 11 4 17 16 10 8 10 19 30 33 43 55 62 66 70
38 38 36 34 33 31 31 32 27 31 37 43 50 50 53 45 37 38 36 37 25 11 16 11 5 5 10 15 20 16 9 4 6 10 31 25 34 38
41 41 41 38 35 29 29 24 18 20 31 35 45 47 44 41 34 27 30 32 24 12 14 15 18 24 21 32 33 21 19 20 13 9 16 20 46 61
39 41 44 42 40 37 28 20 16 20 26 29 31 36 35 25 25 27 29 26 22 20 21 28 34 42 41 45 54 49 57 59 64 66 64 61 63 60
35 37 40 43 43 39 34 28 21 20 21 23 27 28 24 16 18 24 27 25 27 18 25 32 48 41 23 39 42 46 50 47 46 45 40 37 37 42
32 33 36 40 42 41 35 30 28 27 28 25 22 19 16 15 10 14 19 20 25 24 28 33 43 23 21 39 39 41 41 43 40 38 32 31 29 20
28 29 33 36 38 39 36 33 33 30 26 25 23 21 20 20 18 12 3 12 22 18 25 38 41 24 30 47 39 34 34 34 26 28 30 31 34 35
25 27 29 31 34 34 34 35 33 30 28 22 23 24 25 25 23 18 14 10 8 10 23 27 27 21 33 50 51 45 40 31 25 22 22 23 23 25
22 23 23 26 28 29 28 28 29 30 30 29 26 25 25 24 21 21 18 17 12 21 21 22 23 17 20 28 41 45 35 22 28 24 23 26 27 25
23 22 21 22 22 22 21 22 23 23 21 25 26 28 28 27 21 15 11 11 13 20 27 31 28 25 28 26 36 34 33 23 35 31 28 26 26 22
26 23 21 21 20 20 19 17 17 16 15 15 17 18 18 20 22 22 20 15 13 19 23 25 23 23 25 28 27 31 29 21 35 27 22 17 15 14
29 28 27 24 22 20 17 14 11 10 10 9 9 9 11 14 17 19 23 20 21 21 19 20 22 16 19 24 28 28 22 19 27 26 21 17 16 16
29 29 28 27 25 23 20 17 14 12 10 10 8 7 7 8 8 10 11 12 9 10 13 16 16 15 15 13 19 24 22 17 16 20 21 20 18 16
26 24 23 24 25 26 24 22 20 17 16 15 13 11 10 9 7 6 5 5 5 6 7 8 8 7 8 9 12 21 20 22 23 22 21 22 21 22
23 21 20 20 20 21 23 24 23 22 22 22 21 20 18 16 15 15 14 15 16 16 16 16 14 13 12 12 12 17 23 25 26 26 25 26 20 13
27 25 23 21 20 18 18 19 21 23 24 25 25 25 25 25 24 23 23 22 22 21 21 22 23 21 20 19 19 20 23 26 26 26 28 26 25 27
Wind_Direction_850mb
312 300 294 295 292 289 284 281 283 291 292 297 298 299 302 293 287 277 274 281 280 278 281 283 271 277 273 262 262 273 267 255 231 242 234 227 226 228
308 305 304 305 302 299 292 284 281 280 282 287 294 302 299 297 303 303 281 270 277 286 273 278 273 265 261 263 254 265 262 259 233 238 239 236 235 230
309 305 303 301 298 297 295 292 287 284 282 289 295 294 290 296 298 284 295 289 282 296 268 277 271 262 256 255 262 272 271 260 265 244 229 231 233 229
307 303 301 300 300 302 297 292 288 286 284 289 297 302 302 301 300 294 279 294 291 283 274 279 276 266 255 248 257 265 274 262 270 254 252 230 225 235
311 305 306 304 306 311 303 297 290 288 285 295 296 303 306 315 316 313 300 288 288 293 294 310 301 265 260 259 252 242 256 247 283 312 262 242 253 238
329 313 313 314 311 314 306 302 294 290 291 293 293 303 308 327 323 311 309 290 280 282 280 289 302 281 260 248 251 257 253 258 270 284 285 258 257 241
355 345 342 334 325 318 301 295 296 293 290 296 296 300 306 317 323 326 323 322 294 275 264 289 291 290 280 268 253 250 246 256 251 248 244 250 252 247
352 347 336 328 324 323 319 301 281 287 289 292 298 300 303 305 315 322 322 327 311 247 198 176 34 17 4 349 261 245 248 250 251 253 246 248 253 254
358 348 342 341 334 332 328 314 289 276 276 281 283 288 293 298 302 313 321 321 307 266 162 131 106 360 42 44 16 347 324 352 344 270 241 232 217 218
7 6 360 358 355 343 343 336 327 296 286 290 293 300 300 301 284 288 301 304 303 240 209 129 127 114 114 97 73 48 39 48 41 205 209 196 178 159
9 9 10 12 10 6 357 354 342 328 312 302 299 302 301 292 279 272 275 286 280 243 215 162 136 120 116 111 111 103 101 109 114 110 109 111 115 119
10 9 12 15 19 13 11 10 12 7 352 323 311 310 307 292 263 259 261 255 258 221 198 165 148 131 99 108 117 119 114 112 113 111 107 107 114 120
5 8 13 16 17 19 19 20 27 31 19 9 5 357 349 315 269 237 236 236 238 218 199 191 176 160 134 128 122 121 125 123 122 113 110 109 109 111
357 3 12 15 15 17 22 31 34 36 26 18 16 28 42 47 37 36 130 197 204 223 198 193 188 183 167 149 134 136 130 122 121 123 130 133 135 129
345 354 5 11 13 14 17 23 29 38 43 31 37 41 48 50 55 64 73 102 162 181 176 186 195 173 176 174 160 154 146 139 143 144 133 129 131 129
332 343 353 0 7 10 16 22 27 33 38 48 53 54 58 57 59 60 71 85 109 125 141 149 158 147 168 176 177 165 162 149 164 159 153 146 145 148
317 326 340 345 348 355 7 20 29 34 39 49 57 66 70 67 62 70 73 74 105 127 132 136 132 126 124 138 164 172 169 167 171 171 165 163 164 164
303 309 312 316 324 335 347 359 13 21 30 54 66 65 56 54 59 64 76 93 109 124 137 139 133 127 128 123 153 166 168 175 175 172 173 173 173 187
293 296 299 302 306 313 322 332 338 346 1 15 36 46 44 60 62 71 79 80 104 119 129 134 136 144 149 133 147 155 158 151 171 179 179 193 203 211
286 290 292 292 293 294 296 299 306 311 311 313 324 341 2 9 34 60 78 87 72 95 119 132 143 152 149 145 163 167 171 165 173 182 199 208 218 230
282 289 293 293 289 288 288 286 283 282 283 285 283 276 270 263 254 250 232 213 194 193 195 203 204 199 184 181 177 181 188 197 195 197 216 225 233 246
274 280 285 290 291 286 282 280 278 276 275 274 272 269 268 264 259 253 244 240 234 230 240 242 241 243 240 223 211 201 201 205 209 217 224 231 237 244
262 268 277 284 288 292 293 288 281 276 273 271 269 270 269 267 264 262 262 256 250 248 247 246 246 241 241 235 226 217 215 216 217 222 233 238 247 253